Regional Weather Roundup
Issued by NWS Nashville, TN

Home | Current Version | Previous Version | Text Only | Print | Product List | Glossary On
Versions: 1 2 3 4 5 6 7 8 9 10 11 12 13 14 15 16 17 18 19 20 21 22 23 24 25 26 27 28 29 30 31 32 33 34 35 36 37 38 39 40 41 42 43 44 45 46 47 48 49 50
000
ASUS44 KOHX 221015
RWROHX
MIDDLE TENNESSEE HOURLY WEATHER ROUNDUP
NATIONAL WEATHER SERVICE NASHVILLE TN
500 AM CDT WED OCT 22 2014

NOTE: "FAIR" INDICATES FEW OR NO CLOUDS BELOW 12,000 FEET WITH
NO SIGNIFICANT WEATHER AND/OR OBSTRUCTIONS TO VISIBILITY.

* THESE REPORTS ARE NOT UNDER NWS QUALITY CONTROL AND MAY NOT
  REPORT WEATHER SUCH AS PRECIPITATION AND FOG.


TNZ005>011-023>034-057-059-062>066-078-080-221100
...NORTHERN MIDDLE TENNESSEE...

CITY           SKY/WX    TMP DP  RH WIND       PRES   REMARKS
CLARKSVILLE    CLEAR     44  40  85 NE5       30.20R
CROSSVILLE     CLEAR     42  38  85 N5        30.15R
NASHVILLE      CLEAR     45  41  86 N6        30.18R
SMYRNA         CLEAR     43  40  89 CALM      30.19R
SPARTA         CLEAR     37  36  93 CALM      30.16R
$$
TNZ056-058-060-061-075>077-079-093>097-221100
...SOUTHERN MIDDLE TENNESSEE...

CITY           SKY/WX    TMP DP  RH WIND       PRES   REMARKS
COLUMBIA       CLEAR     41  41 100 CALM      30.15R
FAYETTEVILLE   CLEAR     43  39  87 NE7       30.13S
MCMINNVILLE    CLEAR     39  39 100 CALM      30.16R
SHELBYVILLE    CLEAR     39  37  93 CALM      30.17R
TULLAHOMA      CLEAR     37  34  87 CALM      30.15S
WINCHESTER     CLEAR     39  37  93 CALM      30.15R
$$


...KEY TO REMARKS...
VSB - VISIBILITY IN MILES
WCI - WIND CHILL INDEX
HX  - HEAT INDEX




USA.gov is the U.S. government's official web portal to all federal, state and local government web resources and services.